CAPE
1 0 0 0 0 0 0 0 0 0 0 0 0 0 0 0 0 0 0 0 0 0 0 0 0 0 0 0 0 0 0 0 0 0 0 0 0 0 0 0 0 0 0 0 0
0 0 0 0 0 0 0 0 0 0 0 0 0 0 0 0 0 0 0 0 0 0 0 0 0 0 0 0 0 0 0 0 0 0 0 0 0 0 0 0 0 0 0 0 0
0 0 0 0 0 0 0 0 0 0 0 0 0 0 0 0 0 0 0 0 0 0 0 0 0 0 0 0 0 0 0 0 0 0 0 0 0 0 0 0 0 0 0 0 0
0 0 0 0 0 0 0 0 0 0 0 0 0 0 0 0 0 0 0 0 0 0 0 0 0 0 0 0 0 0 0 0 0 0 0 0 0 0 0 0 0 0 0 0 0
0 0 0 0 0 0 0 0 0 0 0 0 0 0 0 0 0 0 0 0 0 0 0 0 0 0 0 0 0 0 0 0 0 0 0 0 0 0 0 0 0 0 0 0 0
0 0 0 0 0 0 0 0 0 0 0 0 0 0 0 0 0 0 0 0 0 0 0 0 0 0 0 0 0 0 0 0 0 0 0 0 0 0 0 0 0 0 0 0 0
0 0 0 0 0 0 0 0 0 0 0 0 0 0 0 0 0 0 0 0 0 0 0 0 0 0 0 0 0 0 0 0 0 0 0 0 0 0 0 0 0 0 0 0 0
0 0 0 0 0 0 0 0 0 0 0 0 0 0 0 0 0 0 0 0 0 0 0 0 0 0 0 0 0 0 0 0 0 0 0 0 0 0 0 0 0 0 0 0 0
0 0 0 0 0 0 0 0 0 0 0 0 0 0 0 0 0 0 0 0 0 0 0 0 0 0 0 0 0 0 0 0 0 0 0 0 0 0 0 0 0 0 0 0 0
0 0 0 0 0 0 0 0 0 0 0 0 0 0 0 0 0 0 0 0 0 0 0 0 0 0 0 0 0 0 0 0 0 0 0 0 0 0 0 0 0 0 0 0 0
0 0 0 0 0 0 0 0 0 0 0 0 0 0 0 0 0 0 0 0 0 0 0 0 0 0 0 0 0 0 0 0 0 0 0 0 0 0 0 0 0 0 0 0 0
0 0 0 0 0 0 0 0 0 0 0 0 0 0 0 0 0 0 0 0 0 0 0 0 0 0 0 0 0 0 0 0 0 0 0 0 0 0 0 0 0 0 0 0 0
0 0 0 0 0 0 0 0 0 0 0 0 0 0 0 0 0 0 0 0 0 0 0 0 0 0 0 0 0 0 0 0 0 0 0 0 0 0 0 0 0 0 0 0 0
0 0 0 0 0 0 0 0 0 0 0 0 0 0 0 0 0 0 0 0 0 0 0 0 0 0 0 0 0 0 0 0 0 0 0 0 0 0 0 0 0 0 0 0 0
0 0 0 0 0 0 0 0 0 0 0 0 0 0 0 0 0 0 0 0 0 0 0 0 0 0 0 0 0 0 0 0 0 0 0 0 0 0 0 0 0 0 0 0 0
0 0 0 0 0 0 0 0 0 0 0 0 0 0 0 0 0 0 0 0 0 0 0 0 0 0 0 0 0 0 0 0 0 0 0 0 0 0 0 0 0 0 0 0 0
0 0 0 0 0 0 0 0 0 0 0 0 0 0 0 0 0 0 0 0 0 0 0 0 0 0 0 0 0 0 0 0 0 0 0 0 0 0 0 0 0 0 0 0 0
0 0 0 0 0 0 0 0 0 0 0 0 0 0 0 0 0 0 0 0 0 0 0 0 0 0 0 0 0 0 0 0 0 0 0 0 0 0 0 0 0 0 0 0 0
0 0 0 0 0 0 0 0 0 0 0 0 0 0 0 0 0 0 0 0 0 0 0 0 0 0 0 0 0 0 0 0 0 0 0 0 0 0 0 0 0 0 0 0 0
0 0 0 0 0 0 0 0 0 0 0 0 0 0 0 0 0 0 0 0 0 0 0 0 0 0 0 0 0 0 0 0 0 0 0 0 0 0 0 0 0 0 0 0 0
0 0 0 0 0 0 0 0 0 0 0 0 0 0 0 0 0 0 0 0 0 0 0 0 0 0 0 0 0 0 0 0 0 0 0 0 0 0 0 0 0 0 0 0 0
0 0 0 0 0 0 0 0 0 0 0 0 0 0 0 0 0 0 0 0 0 0 0 0 0 0 0 0 0 0 0 0 0 0 0 0 0 0 0 0 0 0 0 0 0
0 0 0 0 0 0 0 0 0 0 0 0 0 0 0 0 0 0 0 0 0 0 0 0 0 0 0 0 0 0 0 0 0 0 0 0 0 0 0 0 0 0 1 1 0
0 0 0 0 0 0 0 0 0 0 0 0 0 0 0 0 0 0 0 0 0 0 0 0 0 0 0 0 0 0 0 0 0 0 0 0 0 0 0 0 0 5 3 1 1
0 1 1 0 0 0 0 0 0 0 0 0 0 0 0 0 0 0 0 0 0 0 0 0 0 0 0 0 0 0 0 0 1 0 1 0 0 8 0 2 2 1 1 1 2
10 11 0 0 0 0 0 0 0 0 0 0 0 0 0 0 0 0 0 0 0 0 0 0 0 0 0 0 0 0 0 0 0 0 3 2 1 0 1 1 0 0 0 0 0
0 0 1 3 12 5 1 0 0 0 0 0 0 0 0 1 0 0 0 0 0 0 0 0 0 0 0 0 0 1 0 1 0 0 0 0 0 3 1 0 0 0 0 0 0
CIN
-0 -0 -0 -0 -0 -0 -0 -0 -0 -0 -0 -0 -0 -0 -0 -0 -0 -0 -0 -0 -0 -0 -0 -0 -0 -0 -0 -0 -0 -0 -0 -0 -0 -0 -0 -0 -0 -0 -0 -0 -0 -0 -0 -0 -0
-0 -0 -0 -0 -0 -0 -0 -0 -0 -0 -0 -0 -0 -0 -0 -0 -0 -0 -0 -0 -0 -0 -0 -0 -0 -0 -0 -0 -0 -0 -0 -0 -0 -0 -0 -0 -0 -0 -0 -0 -0 -0 -0 -0 -0
-0 -0 -0 -0 -0 -0 -0 -0 -0 -0 -0 -0 -0 -0 -0 -0 -0 -0 -0 -0 -0 -0 -0 -0 -0 -0 -0 -0 -0 -0 -0 -0 -0 -0 -0 -0 -0 -0 -0 -0 -0 -0 -0 -0 -0
-0 -0 -0 -0 -0 -0 -0 -0 -0 -0 -0 -0 -0 -0 -0 -0 -0 -0 -0 -0 -0 -0 -0 -0 -0 -0 -0 -0 -0 -0 -0 -0 -0 -0 -0 -0 -0 -0 -0 -0 -0 -0 -0 -0 -0
-0 -0 -0 -0 -0 -0 -0 -0 -0 -0 -0 -0 -0 -0 -0 -0 -0 -0 -0 -0 -0 -0 -0 -0 -0 -0 -0 -0 -0 -0 -0 -0 -0 -0 -0 -0 -0 -0 -0 -0 -0 -0 -0 -0 -0
-0 -0 -0 -0 -0 -0 -0 -0 -0 -0 -0 -0 -0 -0 -0 -0 -0 -0 -0 -0 -0 -0 -0 -0 -0 -0 -0 -0 -0 -0 -0 -0 -0 -0 -0 -0 -0 -0 -0 -0 -0 -0 -0 -0 -0
-0 -0 -0 -0 -0 -0 -0 -0 -0 -0 -0 -0 -0 -0 -0 -0 -0 -0 -0 -0 -0 -0 -0 -0 -0 -0 -0 -0 -0 -0 -0 -0 -0 -0 -0 -0 -0 -0 -0 -0 -0 -0 -0 -0 -0
-0 -0 -0 -0 -0 -0 -0 -0 -0 -0 -0 -0 -0 -0 -0 -0 -0 -0 -0 -0 -0 -0 -0 -0 -0 -0 -0 -0 -0 -0 -0 -0 -0 -0 -0 -0 -0 -0 -0 -0 -0 -0 -0 -0 -0
-0 -0 -0 -0 -0 -0 -0 -0 -0 -0 -0 -0 -0 -0 -0 -0 -0 -0 -0 -0 -0 -0 -0 -0 -0 -0 -0 -0 -0 -0 -0 -0 -0 -0 -0 -0 -0 -0 -0 -0 -0 -0 -0 -0 -0
-0 -0 -0 -0 -0 -0 -0 -0 -0 -0 -0 -0 -0 -0 -0 -0 -0 -0 -0 -0 -0 -0 -0 -0 -0 -0 -0 -0 -0 -0 -0 -0 -0 -0 -0 -0 -0 -0 -0 -0 -0 -0 -0 -0 -0
-0 -0 -0 -0 -0 -0 -0 -0 -0 -0 -0 -0 -0 -0 -0 -0 -0 -0 -0 -0 -0 -0 -0 -0 -0 -0 -0 -0 -0 -0 -0 -0 -0 -0 -0 -0 -0 -0 -0 -0 -0 -0 -0 -0 -0
-0 -0 -0 -0 -0 -0 -0 -0 -0 -0 -0 -0 -0 -0 -0 -0 -0 -0 -0 -0 -0 -0 -0 -0 -0 -0 -0 -0 -0 -0 -0 -0 -0 -0 -0 -0 -0 -0 -0 -0 -0 -0 -0 -0 -0
-0 -0 -0 -0 -0 -0 -0 -0 -0 -0 -0 -0 -0 -0 -0 -0 -0 -0 -0 -0 -0 -0 -0 -0 -0 -0 -0 -0 -0 -0 -0 -0 -0 -0 -0 -0 -0 -0 -0 -0 -0 -0 -0 -0 -0
-0 -0 -0 -0 -0 -0 -0 -0 -0 -0 -0 -0 -0 -0 -0 -0 -0 -0 -0 -0 -0 -0 -0 -0 -0 -0 -0 -0 -0 -0 -0 -0 -0 -0 -0 -0 -0 -0 -0 -0 -0 -0 -0 -0 -0
-0 -0 -0 -0 -0 -0 -0 -0 -0 -0 -0 -0 -0 -0 -0 -0 -0 -0 -0 -0 -0 -0 -0 -0 -0 -0 -0 -0 -0 -0 -0 -0 -0 -0 -0 -0 -0 -0 -0 -0 -0 -0 -0 -0 -0
-0 -0 -0 -0 -0 -0 -0 -0 -0 -0 -0 -0 -0 -0 -0 -0 -0 -0 -0 -0 -0 -0 -0 -0 -0 -0 -0 -0 -0 -0 -0 -0 -0 -0 -0 -0 -0 -0 -0 -0 -0 -0 -0 -0 -0
-0 -0 -0 -0 -0 -0 -0 -0 -0 -0 -0 -0 -0 -0 -0 -0 -0 -0 -0 -0 -0 -0 -0 -0 -0 -0 -0 -0 -0 -0 -0 -0 -0 -0 -0 -0 -0 -0 -0 -0 -0 -0 -0 -0 -0
-0 -0 -0 -0 -0 -0 -0 -0 -0 -0 -0 -0 -0 -0 -0 -0 -0 -0 -0 -0 -0 -0 -0 -0 -0 -0 -0 -0 -0 -0 -0 -0 -0 -0 -0 -0 -0 -0 -0 -0 -0 -0 -0 -0 -0
-0 -0 -0 -0 -0 -0 -0 -0 -0 -0 -0 -0 -0 -0 -0 -0 -0 -0 -0 -0 -0 -0 -0 -0 -0 -0 -0 -0 -0 -0 -0 -0 -0 -0 -0 -0 -0 -0 -0 -0 -0 -0 -0 -0 -0
-0 -0 -0 -0 -0 -0 -0 -0 -0 -0 -0 -0 -0 -0 -0 -0 -0 -0 -0 -0 -0 -0 -0 -0 -0 -0 -0 -0 -0 -0 -0 -0 -0 -0 -0 -0 -0 -0 -0 -0 -0 -0 -0 -0 -0
-0 -0 -0 -0 -0 -0 -0 -0 -0 -0 -0 -0 -0 -0 -0 -0 -0 -0 -0 -0 -0 -0 -0 -0 -0 -0 -0 -0 -0 -0 -0 -0 -0 -0 -0 -0 -0 -0 -0 -0 -0 -0 -0 -0 -0
-0 -0 -0 -0 -0 -0 -0 -0 -0 -0 -0 -0 -0 -0 -0 -0 -0 -0 -0 -0 -0 -0 -0 -0 -0 -0 -0 -0 -0 -0 -0 -0 -0 -0 -0 -0 -0 -0 -0 -0 -0 -0 -0 -0 -0
-0 -0 -0 -0 -0 -0 -0 -0 -0 -0 -0 -0 -0 -0 -0 -0 -0 -0 -0 -0 -0 -0 -0 -0 -0 -0 -0 -0 -0 -0 -0 -0 -0 -0 -0 -0 -0 -0 -0 -0 -0 -0 -0 -0 -0
-0 -0 -0 -0 -0 -0 -0 -0 -0 -0 -0 -0 -0 -0 -0 -0 -0 -0 -0 -0 -0 -0 -0 -0 -0 -0 -0 -0 -0 -0 -1 -0 -0 -0 -0 -0 -0 -0 -0 -0 -0 -0 -0 -0 -0
-0 -8 -4 -0 -0 -0 -0 -0 -0 -0 -0 -0 -0 -0 -0 -0 -0 -0 -0 -0 -0 -0 -0 -0 -0 -0 -0 -0 -0 -0 -0 -0 -0 -0 -0 -0 -0 -1 -0 -0 -0 -0 -0 -0 -0
-0 -0 -0 -0 -0 -0 -0 -0 -0 -0 -0 -0 -0 -0 -0 -1 -0 -1 -0 -0 -0 -0 -0 -0 -0 -0 -0 -0 -0 -0 -0 -0 -0 -0 -0 -0 -1 -0 -0 -0 -0 -0 -0 -0 -0
-0 -0 -0 -0 -0 -1 -1 -0 -0 -0 -0 -0 -0 -0 -4 -20 -3 -0 -0 -0 -0 -0 -0 -0 -0 -0 -0 -0 -0 -2 -3 -0 -0 -0 -0 -0 -0 -0 -0 -0 -0 -0 -0 -0 -0
Wind_Speed
11 12 13 14 14 14 14 14 15 15 15 15 14 14 13 13 11 11 10 11 11 12 12 12 11 18 17 18 18 17 16 14 14 14 14 13 13 13 14 13 11 11 11 11 12
10 11 12 13 13 14 14 14 14 14 14 14 14 15 14 13 12 12 10 10 11 11 17 18 18 18 17 18 17 17 14 13 14 15 14 13 12 12 12 12 10 11 14 12 11
10 10 11 12 13 13 13 13 13 13 13 13 14 15 14 14 13 14 10 10 11 16 16 17 17 17 18 17 17 16 13 14 13 13 14 13 13 13 12 8 6 7 7 8 8
10 10 11 12 13 13 13 13 13 13 12 13 13 14 14 14 14 17 16 19 19 17 17 17 17 17 17 17 17 15 14 13 13 13 13 13 15 13 8 6 11 8 5 5 4
10 10 11 12 13 13 14 14 14 14 14 13 14 16 15 15 16 18 19 20 18 19 18 16 17 16 16 16 17 16 14 13 12 12 11 12 10 10 5 7 9 9 5 2 3
10 11 12 12 13 14 15 16 15 16 16 16 17 17 16 16 16 18 19 18 20 19 19 18 16 17 17 17 17 16 14 11 11 11 12 13 14 18 16 16 8 7 5 3 2
12 12 13 13 15 16 16 17 17 16 17 18 19 17 16 15 16 19 18 17 18 18 18 18 17 16 17 18 17 17 18 17 11 12 14 18 14 13 13 16 9 7 6 4 3
14 14 14 15 16 17 18 19 18 18 18 18 18 17 16 15 17 18 19 16 17 17 17 16 17 17 18 17 19 19 19 23 18 13 15 18 17 17 17 12 10 7 7 6 5
15 15 16 16 17 17 19 20 20 21 21 19 17 17 16 16 16 17 18 17 17 16 17 17 17 17 18 20 21 22 22 23 21 12 17 15 18 17 19 13 10 6 6 7 6
19 18 18 17 17 19 21 20 18 20 18 16 16 17 16 17 18 17 18 17 17 18 18 18 19 18 19 20 22 23 24 22 22 20 15 17 14 15 16 13 10 7 6 6 4
23 22 21 20 20 21 19 18 19 18 16 17 17 18 17 18 17 16 17 17 16 17 18 19 21 20 19 19 20 22 24 24 23 22 21 21 21 18 23 13 7 6 6 6 4
26 25 23 22 21 21 18 18 18 17 22 17 17 17 16 17 18 16 18 17 17 19 17 20 21 19 18 19 22 23 26 27 26 20 25 26 25 21 21 15 11 7 4 5 5
28 28 26 24 20 20 19 18 18 18 21 19 16 16 16 15 16 16 16 16 18 19 18 19 22 18 20 22 24 25 25 27 27 28 26 31 29 23 20 17 15 12 8 8 4
29 29 27 24 18 20 20 20 20 19 22 18 16 15 14 15 16 15 16 17 18 20 21 21 18 19 21 24 22 29 22 24 29 34 35 29 38 26 22 17 16 13 11 9 7
31 30 28 23 20 20 20 20 20 19 26 16 15 14 14 16 19 16 17 18 20 20 20 22 20 21 24 24 19 26 24 28 30 33 34 30 29 28 22 22 16 13 13 12 8
33 32 29 23 21 20 21 21 18 22 24 18 16 16 18 17 19 19 20 19 20 22 20 23 22 22 22 21 20 24 27 30 29 29 34 31 26 30 26 25 21 16 13 10 10
35 34 25 21 23 21 21 20 24 22 19 19 17 17 21 24 22 19 21 20 21 27 27 25 24 21 18 24 22 22 30 37 36 36 38 28 32 32 30 26 20 15 17 9 11
37 32 23 20 20 21 20 22 25 22 21 20 21 23 25 22 21 20 22 26 21 23 27 30 31 20 17 21 25 24 26 30 41 43 45 33 37 32 25 21 17 17 15 12 13
37 29 24 20 19 20 21 26 25 24 21 22 25 28 26 20 22 23 24 27 22 15 25 29 30 22 22 21 21 28 29 25 34 35 42 35 31 24 20 19 19 18 17 19 20
34 30 25 18 19 21 23 28 25 20 20 23 29 24 29 27 26 25 27 23 25 20 20 27 38 26 24 23 25 26 23 34 31 40 42 36 34 28 18 17 18 20 20 18 19
30 31 21 19 21 23 28 28 27 23 21 23 26 29 28 29 28 32 30 28 24 24 21 26 31 36 28 30 31 30 31 27 28 27 36 39 31 25 15 16 18 19 19 19 20
29 33 22 22 29 25 29 27 25 25 22 25 25 28 30 30 34 32 31 26 21 22 30 27 33 41 39 32 28 28 28 23 28 31 27 31 35 19 18 19 18 18 19 20 21
34 31 25 21 32 31 29 29 27 27 27 26 28 26 26 29 32 30 30 25 23 26 28 26 32 43 42 33 27 27 24 23 24 27 33 36 36 18 20 21 20 22 23 23 23
30 33 28 25 27 33 34 35 34 28 30 27 30 27 28 32 31 36 35 30 26 29 28 27 33 35 40 37 33 35 30 27 27 36 38 36 37 28 25 26 25 27 25 24 24
27 32 29 35 32 31 30 32 33 33 27 27 32 31 33 39 36 37 37 37 31 27 25 25 37 33 36 38 39 41 39 35 35 35 38 40 37 35 26 26 26 24 23 23 22
32 33 32 35 32 36 36 38 38 35 34 35 34 31 31 37 35 40 36 34 35 29 28 26 39 36 45 38 38 43 38 34 34 35 36 36 37 25 23 22 23 23 22 22 22
28 27 32 36 37 37 37 37 38 34 35 32 33 34 34 33 31 32 31 32 31 32 31 32 34 38 49 37 37 44 36 34 33 32 30 35 29 21 23 22 22 22 21 21 22
Wind_Direction
236 235 235 225 224 228 226 223 223 221 215 219 236 253 262 259 242 293 258 197 178 215 221 187 85 61 62 48 38 41 64 97 83 75 64 60 54 50 46 49 63 59 52 61 88
247 246 234 226 224 222 223 230 228 219 219 234 251 256 254 254 264 296 204 184 179 185 64 37 56 51 56 46 31 34 76 84 52 49 51 52 42 38 37 35 35 26 12 35 73
267 255 238 229 224 226 225 226 220 216 226 248 261 260 250 248 282 280 210 206 165 79 65 52 48 49 47 40 39 47 84 61 59 51 41 41 34 22 21 25 34 27 43 57 60
280 261 241 231 234 235 234 226 221 225 233 255 268 270 261 318 293 339 293 324 4 36 43 34 33 39 37 34 36 49 58 62 63 50 49 39 21 23 22 12 11 28 61 60 55
287 269 257 247 241 240 236 227 225 225 221 250 279 291 342 318 323 7 349 353 16 20 18 30 32 36 32 31 27 34 46 52 53 55 46 36 33 25 12 9 8 7 30 66 42
291 276 271 261 254 245 237 229 228 232 236 260 279 319 340 317 14 5 1 8 2 14 12 19 32 29 23 18 20 23 36 51 45 47 35 27 23 16 21 12 18 10 18 25 34
301 290 282 270 260 248 244 236 234 238 256 271 304 355 341 352 16 358 360 10 11 16 16 22 23 25 20 8 12 9 9 19 41 32 25 16 21 24 19 11 17 10 3 4 353
311 301 290 276 263 253 251 246 242 252 272 300 328 357 341 6 360 359 355 10 12 14 20 23 18 16 3 9 360 353 5 356 13 26 20 14 5 10 6 4 359 359 353 345 340
316 307 297 284 272 265 264 258 252 263 283 308 339 348 339 355 355 359 2 355 1 12 10 11 6 2 353 344 344 346 346 348 357 20 8 9 354 358 356 353 341 336 338 338 340
324 315 309 299 292 285 278 292 314 300 330 341 339 340 345 345 346 350 0 1 354 353 356 356 353 352 344 340 342 340 341 346 347 356 356 350 333 332 342 337 320 319 327 331 328
328 321 314 306 302 304 320 332 322 327 333 333 333 332 338 340 351 349 355 352 354 351 348 346 341 340 340 340 341 341 339 338 342 346 347 344 338 329 342 333 324 314 317 315 303
328 324 317 309 309 325 341 338 339 339 321 333 334 334 338 343 336 344 346 346 347 342 348 341 337 341 344 340 337 337 334 335 339 348 342 341 335 333 350 360 353 333 318 321 324
325 324 320 314 325 341 353 350 347 351 328 331 341 341 342 347 341 345 346 348 341 337 339 335 333 341 335 333 332 333 332 334 334 338 338 339 337 350 356 354 353 355 349 342 322
322 321 317 315 343 342 343 346 348 352 324 329 341 349 355 353 344 350 347 343 340 335 334 332 337 334 332 329 332 328 339 337 333 333 331 344 329 339 346 346 346 349 351 345 334
317 319 318 336 340 338 341 342 345 350 310 337 341 354 351 344 339 344 344 339 330 330 332 328 329 328 326 329 336 331 338 333 331 328 330 334 330 338 347 338 335 337 341 343 337
314 315 317 333 337 341 341 343 349 323 309 328 339 338 335 339 335 334 333 336 334 327 326 321 328 328 327 334 335 336 334 333 334 332 326 333 329 333 335 333 332 331 333 338 341
313 312 327 334 327 336 340 340 320 313 329 323 328 333 327 325 327 330 328 328 327 322 322 325 323 329 334 328 334 335 332 325 324 324 322 335 326 320 326 328 329 330 336 342 346
311 319 332 333 335 336 335 324 308 315 315 325 322 320 318 324 324 326 324 320 324 321 319 318 317 325 334 329 327 328 329 323 318 318 318 325 320 328 338 344 349 344 347 353 348
316 325 327 331 335 334 324 307 308 312 317 317 318 312 315 321 320 319 318 317 323 323 318 318 316 328 327 329 329 326 319 327 317 318 316 320 324 328 339 345 346 342 341 337 337
319 320 320 333 334 325 312 302 307 315 318 315 307 311 307 311 312 315 315 321 320 321 321 317 310 317 322 324 323 318 326 317 319 315 315 319 320 319 326 336 339 337 335 337 338
321 315 323 330 328 314 301 303 306 309 311 308 305 303 305 306 306 307 308 314 316 317 320 316 310 312 317 313 312 316 313 314 316 313 314 317 321 334 331 332 330 334 337 336 336
320 307 322 323 307 307 301 305 310 306 309 306 307 303 301 304 303 303 302 306 320 319 311 312 309 303 305 313 315 313 309 308 307 315 310 311 308 328 329 328 327 327 329 331 333
312 310 318 315 299 299 302 302 305 302 302 304 303 303 307 303 303 303 306 315 314 312 314 315 309 307 309 314 319 314 315 311 311 311 302 304 310 320 319 319 320 320 321 322 324
313 306 311 309 304 299 298 297 296 305 300 301 301 303 301 299 299 301 303 309 311 308 309 308 300 298 297 304 315 310 311 308 304 303 305 295 303 305 303 307 310 315 317 320 323
311 303 305 299 302 299 299 300 299 300 302 302 300 296 296 297 298 296 300 303 306 308 309 307 300 300 298 301 303 301 300 299 295 293 295 299 299 307 307 308 312 316 318 320 323
306 304 306 299 299 296 293 293 293 296 297 296 295 298 297 294 295 298 303 303 301 305 303 305 301 302 299 301 301 299 298 297 294 291 289 293 297 308 313 315 316 316 317 317 320
311 311 306 300 295 292 291 292 294 298 299 292 295 297 296 296 298 299 300 299 297 300 300 299 300 303 299 306 305 299 301 297 298 303 301 299 305 308 311 314 316 317 320 322 320